This is the latest recevied weather packets stored in our database for station/object VE3MNX. If no packets are shown the sender has not sent any weather packets the latest 10 day(s).
| Time | Temp. | Humidity | Pressure | Rain* | Wind** | Luminosity | Snow |
|---|---|---|---|---|---|---|---|
| 1777806498 | 5.56° C | 67% | 1013.9 hPa | 0 mm | - | - | - |
| 1777805594 | 5° C | 67% | 1013.9 hPa | 0 mm | - | - | - |
| 1777804694 | 5° C | 63% | 1013.5 hPa | 0 mm | - | - | - |
| 1777803794 | 3.89° C | 66% | 1013.9 hPa | 0 mm | - | - | - |
| 1777802894 | 3.89° C | 68% | 1013.9 hPa | 0 mm | - | - | - |
| 1777801993 | 3.89° C | 68% | 1013.9 hPa | 0 mm | - | - | - |
| 1777801093 | 3.89° C | 68% | 1013.9 hPa | 0 mm | - | - | - |
| 1777800194 | 3.89° C | 67% | 1013.9 hPa | 0 mm | - | - | - |
| 1777799293 | 3.89° C | 69% | 1013.9 hPa | 0 mm | - | - | - |
| 1777798394 | 4.44° C | 67% | 1014.2 hPa | 0 mm | - | - | - |
| 1777797494 | 4.44° C | 67% | 1014.2 hPa | 0 mm | - | - | - |
| 1777796593 | 4.44° C | 67% | 1014.2 hPa | 0 mm | - | - | - |
| 1777795694 | 4.44° C | 71% | 1013.9 hPa | 0 mm | - | - | - |
| 1777794794 | 5° C | 70% | 1014.2 hPa | 0 mm | - | - | - |
| 1777793893 | 5° C | 68% | 1014.2 hPa | 0 mm | - | - | - |
| 1777792994 | 5° C | 69% | 1014.2 hPa | 0 mm | - | - | - |
| 1777792093 | 5° C | 69% | 1014.2 hPa | 0 mm | - | - | - |
| 1777791193 | 5° C | 67% | 1014.2 hPa | 0 mm | - | - | - |
| 1777790293 | 5° C | 66% | 1013.9 hPa | 0 mm | - | - | - |
| 1777789394 | 5° C | 66% | 1014.6 hPa | 0 mm | - | - | - |
| 1777788494 | 5° C | 66% | 1014.6 hPa | 0 mm | - | - | - |
| 1777787593 | 5° C | 64% | 1014.6 hPa | 0 mm | - | - | - |
| 1777786693 | 5° C | 64% | 1014.6 hPa | 0 mm | - | - | - |
| 1777785794 | 5° C | 65% | 1014.9 hPa | 0 mm | - | - | - |
| 1777784896 | 5° C | 64% | 1014.9 hPa | 0 mm | - | - | - |
* Rain latest hour (hover to see other rain measurements)
** Current wind speed in m/s (hover to see current wind gust speed)